Campo, CA

5:14 PM PST on February 25, 2017 (GMT -0800)
Campo

Weather History for KCZZ - March, 2013

Change the Weather History Date:

Tuesday, March 5, 2013

  Actual Average Record
Temperature  
Mean Temperature 51 °F 51 °F  
Max Temperature 67 °F 66 °F 85 °F (1986)
Min Temperature 35 °F 36 °F 20 °F (1974)
Degree Days  
Heating Degree Days 14 14  
Month to date heating degree days 60 71  
Since 1 July heating degree days 2204 2122  
Cooling Degree Days 0 0  
Month to date cooling degree days 0 0  
Year to date cooling degree days 0 0  
Growing Degree Days 2 (Base 50)    
Moisture  
Dew Point 40 °F    
Average Humidity 60    
Maximum Humidity 85    
Minimum Humidity 34    
Precipitation  
Precipitation 0.00 in 0.11 in 1.85 in (1995)
Month to date precipitation 0.00 0.55  
Year to date precipitation 3.01 6.76  
Since 1 July precipitation 7.48  
Snow  
Snow 0.00 in - - ()
Month to date snowfall 0.0  
Year to date snowfall 0.0  
Snow Depth 0.00 in    
Sea Level Pressure  
Sea Level Pressure 30.00 in    
Wind  
Wind Speed 6 mph (SW)    
Max Wind Speed 16 mph    
Max Gust Speed 22 mph    
T = Trace of Precipitation, MM = Missing Value Source: NWS Daily Summary

Daily Weather History Graph

Daily Weather History Graph

Search for Another Location

Airport or City:

Trip Planner

Search our weather history database for the weather conditions in past years. The results will help you decide how hot, cold, wet, or windy it might be!

Date:

Astronomy

Mar. 05, 2013 Rise Set
Actual Time 6:08 AM PST 5:46 PM PST
Civil Twilight 5:43 AM PST 6:11 PM PST
Nautical Twilight 5:15 AM PST 6:39 PM PST
Astronomical Twilight 4:46 AM PST 7:08 PM PST
Moon 1:10 AM PST (3/5) 11:44 AM PST (3/5)
Length of Visible Light 12h 27m
Length of Day
11h 38m
Last Quarter, 39% of the Moon is Illuminated
Mar 5
Last Quarter
Mar 11
New
Mar 19
First Quarter
Mar 27
Full
Apr 2
Last Quarter

Hourly Weather History & Observations

Time (PST) Temp. Windchill Dew Point Humidity Pressure Visibility Wind Dir Wind Speed Gust Speed Precip Events Conditions
12:52 AM 39.9 °F 36.7 °F 35.1 °F 83% 30.02 in - NNE 4.6 mph - N/A   Unknown
1:52 AM 37.9 °F - 34.0 °F 86% 30.02 in - Calm Calm - N/A   Unknown
2:52 AM 39.0 °F 34.8 °F 34.0 °F 82% 30.00 in - ENE 5.8 mph - N/A   Unknown
3:52 AM 39.0 °F - 34.0 °F 82% 30.01 in - Calm Calm - N/A   Unknown
4:52 AM 37.0 °F 34.5 °F 33.1 °F 86% 30.00 in - NNE 3.5 mph - N/A   Unknown
5:52 AM 39.0 °F 35.7 °F 33.1 °F 79% 30.02 in - NE 4.6 mph - N/A   Unknown
6:52 AM 39.9 °F 36.7 °F 33.1 °F 77% 30.03 in - NE 4.6 mph - N/A   Unknown
7:52 AM 50.0 °F - 37.9 °F 63% 30.03 in - Calm Calm - N/A   Unknown
8:52 AM 57.0 °F - 41.0 °F 55% 30.01 in - Calm Calm - N/A   Unknown
9:52 AM 62.1 °F - 39.0 °F 43% 30.01 in - SW 11.5 mph - N/A   Unknown
10:52 AM 66.0 °F - 37.9 °F 36% 30.00 in - SW 8.1 mph - N/A   Unknown
11:52 AM 66.0 °F - 39.0 °F 37% 29.99 in - SW 11.5 mph - N/A   Unknown
12:52 PM 66.9 °F - 39.9 °F 37% 29.97 in - SW 13.8 mph 21.9 mph N/A   Unknown
1:52 PM 64.9 °F - 42.1 °F 43% 29.95 in - SW 11.5 mph 20.7 mph N/A   Unknown
2:52 PM 64.9 °F - 44.1 °F 47% 29.95 in - SW 13.8 mph - N/A   Unknown
3:52 PM 62.1 °F - 46.0 °F 56% 29.95 in - SW 12.7 mph - N/A   Unknown
4:52 PM 57.9 °F - 46.0 °F 65% 29.96 in - SW 10.4 mph - N/A   Unknown
5:52 PM 51.1 °F - 45.0 °F 80% 29.98 in - SSW 5.8 mph - N/A   Unknown
6:52 PM 48.0 °F - 45.0 °F 89% 30.00 in - South 4.6 mph - N/A   Unknown
7:52 PM 48.0 °F - 46.0 °F 93% 30.00 in - South 3.5 mph - N/A   Unknown
8:52 PM 48.0 °F - 45.0 °F 89% 30.01 in - WSW 6.9 mph - N/A   Unknown
9:52 PM 48.0 °F - 45.0 °F 89% 30.01 in - SW 5.8 mph - N/A   Unknown
10:52 PM 48.0 °F - 44.1 °F 86% 29.99 in - WSW 5.8 mph - N/A   Unknown
11:52 PM 46.9 °F - 41.0 °F 80% 30.00 in - West 6.9 mph - N/A   Unknown